Wetterdaten: Woche 26.01.15 - 01.02.15 (KW5)
Datum Zeit Temp. Aussen +5cm Feuchte Auss Luftdruck Regen Sonnenschein Regendauer Solar Windben
26.01.2015 00:00 2,2 C 1,1 C 98 % 1026,2 hPa 0,2 l/m 0,00 h 0,00 h 0 W/m 11,1 km/h (2 Bft)
26.01.2015 01:00 2,2 C 1,1 C 98 % 1025,7 hPa 0,4 l/m 0,00 h 0,70 h 0 W/m 11,9 km/h (2 Bft)
26.01.2015 02:00 2,2 C 1,1 C 98 % 1025,3 hPa 0,6 l/m 0,00 h 1,00 h 0 W/m 15,0 km/h (3 Bft)
26.01.2015 03:00 2,2 C 1,1 C 98 % 1024,5 hPa 0,2 l/m 0,00 h 0,40 h 0 W/m 15,7 km/h (3 Bft)
26.01.2015 04:00 2,3 C 1,1 C 98 % 1023,5 hPa 0,2 l/m 0,00 h 0,00 h 0 W/m 15,5 km/h (3 Bft)
26.01.2015 05:00 2,5 C 1,6 C 98 % 1022,7 hPa 0,2 l/m 0,00 h 0,00 h 0 W/m 15,1 km/h (3 Bft)
26.01.2015 06:00 2,6 C 1,7 C 98 % 1022,1 hPa 0,0 l/m 0,00 h 0,00 h 0 W/m 14,2 km/h (3 Bft)
26.01.2015 07:00 2,8 C 1,7 C 98 % 1021,6 hPa 0,4 l/m 0,00 h 0,50 h 0 W/m 12,9 km/h (3 Bft)
26.01.2015 08:00 3,1 C 1,9 C 98 % 1021,3 hPa 0,6 l/m 0,00 h 1,00 h 6 W/m 11,8 km/h (2 Bft)
26.01.2015 09:00 3,3 C 2,2 C 99 % 1020,8 hPa 0,4 l/m 0,00 h 1,00 h 15 W/m 13,2 km/h (3 Bft)
26.01.2015 10:00 3,6 C 2,6 C 99 % 1020,2 hPa 1,4 l/m 0,00 h 1,00 h 27 W/m 14,1 km/h (3 Bft)
26.01.2015 11:00 4,0 C 3,0 C 99 % 1019,5 hPa 0,8 l/m 0,00 h 0,90 h 36 W/m 15,3 km/h (3 Bft)
26.01.2015 12:00 4,3 C 3,3 C 99 % 1018,5 hPa 0,0 l/m 0,00 h 0,00 h 32 W/m 16,3 km/h (3 Bft)
26.01.2015 13:00 4,7 C 3,7 C 99 % 1017,7 hPa 0,0 l/m 0,00 h 0,00 h 35 W/m 14,8 km/h (3 Bft)
26.01.2015 14:00 5,1 C 4,0 C 99 % 1017,0 hPa 0,2 l/m 0,00 h 0,37 h 36 W/m 17,6 km/h (3 Bft)
26.01.2015 15:00 5,5 C 4,4 C 99 % 1016,5 hPa 0,4 l/m 0,00 h 1,00 h 39 W/m 16,9 km/h (3 Bft)
26.01.2015 16:00 5,8 C 4,4 C 99 % 1016,4 hPa 0,2 l/m 0,00 h 1,00 h 11 W/m 17,2 km/h (3 Bft)
26.01.2015 17:00 6,2 C 4,7 C 99 % 1017,1 hPa 0,4 l/m 0,00 h 0,87 h 0 W/m 16,0 km/h (3 Bft)
26.01.2015 18:00 5,8 C 4,0 C 99 % 1017,8 hPa 0,2 l/m 0,00 h 0,17 h 0 W/m 18,7 km/h (3 Bft)
26.01.2015 19:00 4,8 C 3,0 C 99 % 1018,5 hPa 0,0 l/m 0,00 h 0,00 h 0 W/m 17,3 km/h (3 Bft)
26.01.2015 20:00 4,3 C 2,8 C 99 % 1018,9 hPa 0,0 l/m 0,00 h 0,03 h 0 W/m 14,8 km/h (3 Bft)
26.01.2015 21:00 4,1 C 2,7 C 98 % 1019,2 hPa 0,6 l/m 0,00 h 0,57 h 0 W/m 15,1 km/h (3 Bft)
26.01.2015 22:00 4,0 C 2,4 C 98 % 1019,7 hPa 0,2 l/m 0,00 h 0,57 h 0 W/m 16,7 km/h (3 Bft)
26.01.2015 23:00 3,6 C 1,7 C 98 % 1020,1 hPa 0,0 l/m 0,00 h 0,00 h 0 W/m 15,7 km/h (3 Bft)
27.01.2015 00:00 3,0 C 1,2 C 97 % 1020,4 hPa 0,2 l/m 0,00 h 0,00 h 0 W/m 16,1 km/h (3 Bft)
27.01.2015 01:00 2,6 C 0,8 C 97 % 1020,5 hPa 0,0 l/m 0,00 h 0,00 h 0 W/m 14,6 km/h (3 Bft)
27.01.2015 02:00 2,4 C 0,8 C 96 % 1020,8 hPa 0,0 l/m 0,00 h 0,00 h 0 W/m 14,3 km/h (3 Bft)
27.01.2015 03:00 2,2 C 0,8 C 96 % 1021,0 hPa 0,0 l/m 0,00 h 0,00 h 0 W/m 12,9 km/h (3 Bft)
27.01.2015 04:00 2,0 C 0,4 C 96 % 1021,4 hPa 0,0 l/m 0,00 h 0,00 h 0 W/m 11,8 km/h (2 Bft)
27.01.2015 05:00 1,9 C 0,6 C 96 % 1021,6 hPa 0,0 l/m 0,00 h 0,00 h 0 W/m 12,6 km/h (3 Bft)
27.01.2015 06:00 1,8 C 0,6 C 96 % 1021,8 hPa 0,0 l/m 0,00 h 0,00 h 0 W/m 14,1 km/h (3 Bft)
27.01.2015 07:00 1,8 C 0,6 C 96 % 1021,7 hPa 0,0 l/m 0,00 h 0,00 h 0 W/m 12,5 km/h (3 Bft)
27.01.2015 08:00 1,9 C 0,7 C 96 % 1022,2 hPa 0,0 l/m 0,13 h 0,00 h 14 W/m 12,4 km/h (3 Bft)
27.01.2015 09:00 2,4 C 1,1 C 97 % 1022,5 hPa 0,2 l/m 0,00 h 0,80 h 32 W/m 12,1 km/h (2 Bft)
27.01.2015 10:00 2,9 C 2,0 C 97 % 1022,6 hPa 0,0 l/m 0,60 h 0,00 h 136 W/m 13,3 km/h (3 Bft)
27.01.2015 11:00 4,2 C 3,5 C 97 % 1022,7 hPa 0,0 l/m 1,00 h 0,00 h 203 W/m 16,7 km/h (3 Bft)
27.01.2015 12:00 5,0 C 3,4 C 96 % 1022,4 hPa 1,6 l/m 0,03 h 0,63 h 59 W/m 17,3 km/h (3 Bft)
27.01.2015 13:00 4,5 C 3,4 C 95 % 1022,1 hPa 0,2 l/m 0,00 h 0,37 h 75 W/m 14,2 km/h (3 Bft)
27.01.2015 14:00 5,0 C 3,9 C 96 % 1021,7 hPa 0,2 l/m 0,00 h 0,23 h 61 W/m 16,6 km/h (3 Bft)
27.01.2015 15:00 5,2 C 3,8 C 96 % 1021,5 hPa 0,0 l/m 0,00 h 0,30 h 40 W/m 13,9 km/h (3 Bft)
27.01.2015 16:00 4,1 C 2,3 C 94 % 1021,7 hPa 2,0 l/m 0,03 h 0,57 h 13 W/m 13,3 km/h (3 Bft)
27.01.2015 17:00 3,6 C 2,3 C 95 % 1021,9 hPa 0,0 l/m 0,07 h 0,00 h 7 W/m 5,3 km/h (1 Bft)
27.01.2015 18:00 4,0 C 2,8 C 96 % 1022,1 hPa 0,0 l/m 0,00 h 0,00 h 0 W/m 7,3 km/h (2 Bft)
27.01.2015 19:00 4,3 C 2,8 C 96 % 1022,2 hPa 0,0 l/m 0,00 h 0,00 h 0 W/m 12,1 km/h (2 Bft)
27.01.2015 20:00 4,3 C 2,8 C 96 % 1022,2 hPa 0,0 l/m 0,00 h 0,00 h 0 W/m 13,2 km/h (3 Bft)
27.01.2015 21:00 3,8 C 1,8 C 96 % 1021,9 hPa 0,0 l/m 0,00 h 0,00 h 0 W/m 7,4 km/h (2 Bft)
27.01.2015 22:00 3,2 C 0,9 C 96 % 1021,6 hPa 0,0 l/m 0,00 h 0,00 h 0 W/m 6,4 km/h (2 Bft)
27.01.2015 23:00 2,7 C 0,9 C 96 % 1021,2 hPa 0,0 l/m 0,00 h 0,00 h 0 W/m 7,6 km/h (2 Bft)
28.01.2015 00:00 2,6 C 1,1 C 96 % 1020,7 hPa 0,0 l/m 0,00 h 0,00 h 0 W/m 9,9 km/h (2 Bft)
28.01.2015 01:00 2,6 C 1,5 C 97 % 1020,2 hPa 0,0 l/m 0,00 h 0,00 h 0 W/m 11,7 km/h (2 Bft)
28.01.2015 02:00 2,7 C 1,6 C 97 % 1019,0 hPa 0,0 l/m 0,00 h 0,00 h 0 W/m 12,4 km/h (3 Bft)
28.01.2015 03:00 2,9 C 1,8 C 97 % 1018,2 hPa 0,0 l/m 0,00 h 0,07 h 0 W/m 11,9 km/h (2 Bft)
28.01.2015 04:00 3,3 C 2,1 C 97 % 1016,6 hPa 0,0 l/m 0,00 h 0,00 h 0 W/m 16,9 km/h (3 Bft)
28.01.2015 05:00 3,6 C 2,2 C 97 % 1015,7 hPa 0,0 l/m 0,00 h 0,00 h 0 W/m 17,2 km/h (3 Bft)
28.01.2015 06:00 3,8 C 2,7 C 97 % 1014,6 hPa 0,0 l/m 0,00 h 0,00 h 0 W/m 19,8 km/h (4 Bft)
28.01.2015 07:00 4,2 C 3,2 C 96 % 1014,0 hPa 0,0 l/m 0,00 h 0,00 h 0 W/m 22,8 km/h (4 Bft)
28.01.2015 08:00 4,6 C 3,3 C 94 % 1012,7 hPa 0,0 l/m 0,00 h 0,00 h 8 W/m 21,6 km/h (4 Bft)
28.01.2015 09:00 4,7 C 3,5 C 93 % 1011,5 hPa 0,0 l/m 0,00 h 0,00 h 35 W/m 21,4 km/h (4 Bft)
28.01.2015 10:00 5,4 C 4,5 C 91 % 1009,8 hPa 0,0 l/m 0,20 h 0,00 h 103 W/m 27,6 km/h (4 Bft)
28.01.2015 11:00 6,2 C 5,3 C 87 % 1008,2 hPa 0,0 l/m 0,00 h 0,00 h 124 W/m 32,2 km/h (5 Bft)
28.01.2015 12:00 6,7 C 5,7 C 83 % 1005,6 hPa 0,0 l/m 0,50 h 0,00 h 166 W/m 38,3 km/h (5 Bft)
28.01.2015 13:00 6,7 C 5,6 C 82 % 1003,5 hPa 0,0 l/m 0,00 h 0,00 h 93 W/m 42,5 km/h (6 Bft)
28.01.2015 14:00 6,8 C 5,5 C 81 % 1000,5 hPa 0,0 l/m 0,00 h 0,00 h 44 W/m 39,2 km/h (6 Bft)
28.01.2015 15:00 6,2 C 4,2 C 86 % 998,6 hPa 0,2 l/m 0,00 h 0,63 h 15 W/m 38,9 km/h (6 Bft)
28.01.2015 16:00 6,0 C 4,0 C 90 % 996,7 hPa 0,4 l/m 0,00 h 0,80 h 9 W/m 45,5 km/h (6 Bft)
28.01.2015 17:00 6,1 C 4,4 C 93 % 995,3 hPa 0,8 l/m 0,00 h 0,77 h 2 W/m 45,0 km/h (6 Bft)
28.01.2015 18:00 4,6 C 2,6 C 93 % 997,1 hPa 2,0 l/m 0,00 h 0,83 h 0 W/m 31,5 km/h (5 Bft)
28.01.2015 19:00 3,0 C 1,7 C 94 % 997,5 hPa 0,0 l/m 0,00 h 0,00 h 0 W/m 21,4 km/h (4 Bft)
28.01.2015 20:00 2,9 C 1,5 C 95 % 997,8 hPa 0,0 l/m 0,00 h 0,00 h 0 W/m 25,4 km/h (4 Bft)
28.01.2015 21:00 2,8 C 1,5 C 94 % 997,9 hPa 0,0 l/m 0,00 h 0,00 h 0 W/m 27,4 km/h (4 Bft)
28.01.2015 22:00 2,7 C 1,1 C 91 % 997,8 hPa 0,0 l/m 0,00 h 0,50 h 0 W/m 29,7 km/h (5 Bft)
28.01.2015 23:00 2,3 C 0,6 C 90 % 997,5 hPa 0,2 l/m 0,00 h 0,33 h 0 W/m 32,8 km/h (5 Bft)
29.01.2015 00:00 1,7 C 0,0 C 91 % 997,5 hPa 0,0 l/m 0,00 h 0,25 h 0 W/m 27,1 km/h (4 Bft)
29.01.2015 01:00 1,3 C 0,0 C 92 % 996,9 hPa 0,0 l/m 0,00 h 0,00 h 0 W/m 26,5 km/h (4 Bft)
29.01.2015 02:00 1,3 C 0,0 C 89 % 996,3 hPa 0,0 l/m 0,00 h 0,00 h 0 W/m 26,8 km/h (4 Bft)
29.01.2015 03:00 1,4 C 0,0 C 87 % 995,6 hPa 0,0 l/m 0,00 h 0,00 h 0 W/m 29,7 km/h (5 Bft)
29.01.2015 04:00 1,4 C 0,2 C 86 % 994,6 hPa 0,0 l/m 0,00 h 0,00 h 0 W/m 27,5 km/h (4 Bft)
29.01.2015 05:00 1,9 C 0,6 C 86 % 993,2 hPa 0,0 l/m 0,00 h 0,00 h 0 W/m 32,0 km/h (5 Bft)
29.01.2015 06:00 2,3 C 0,9 C 86 % 992,3 hPa 0,0 l/m 0,00 h 0,00 h 0 W/m 36,8 km/h (5 Bft)
29.01.2015 07:00 2,4 C 1,1 C 86 % 991,5 hPa 0,0 l/m 0,00 h 0,00 h 0 W/m 37,2 km/h (5 Bft)
29.01.2015 08:00 2,4 C 1,1 C 87 % 990,8 hPa 0,0 l/m 0,20 h 0,00 h 19 W/m 36,8 km/h (5 Bft)
29.01.2015 09:00 2,7 C 1,8 C 87 % 990,0 hPa 0,0 l/m 0,27 h 0,00 h 58 W/m 35,8 km/h (5 Bft)
29.01.2015 10:00 3,2 C 2,4 C 86 % 989,1 hPa 0,0 l/m 0,07 h 0,00 h 86 W/m 32,2 km/h (5 Bft)
29.01.2015 11:00 4,1 C 3,4 C 84 % 987,9 hPa 0,0 l/m 0,60 h 0,00 h 204 W/m 34,9 km/h (5 Bft)
29.01.2015 12:00 4,9 C 3,7 C 80 % 986,2 hPa 0,0 l/m 0,23 h 0,00 h 129 W/m 34,7 km/h (5 Bft)
29.01.2015 13:00 4,7 C 3,4 C 83 % 984,8 hPa 0,2 l/m 0,47 h 0,33 h 215 W/m 32,9 km/h (5 Bft)
29.01.2015 14:00 4,5 C 3,4 C 85 % 983,1 hPa 0,0 l/m 0,43 h 0,17 h 155 W/m 27,6 km/h (4 Bft)
29.01.2015 15:00 4,8 C 3,6 C 83 % 981,4 hPa 0,0 l/m 0,30 h 0,03 h 87 W/m 29,6 km/h (5 Bft)
29.01.2015 16:00 4,6 C 3,0 C 84 % 979,7 hPa 0,0 l/m 0,00 h 0,13 h 25 W/m 21,7 km/h (4 Bft)
29.01.2015 17:00 4,0 C 2,7 C 86 % 978,3 hPa 0,0 l/m 0,00 h 0,00 h 5 W/m 24,5 km/h (4 Bft)
29.01.2015 18:00 3,6 C 2,2 C 87 % 977,1 hPa 0,0 l/m 0,00 h 0,00 h 0 W/m 19,5 km/h (3 Bft)
29.01.2015 19:00 3,4 C 2,2 C 88 % 975,7 hPa 0,0 l/m 0,00 h 0,00 h 0 W/m 14,4 km/h (3 Bft)
29.01.2015 20:00 3,4 C 2,2 C 89 % 974,5 hPa 0,0 l/m 0,00 h 0,00 h 0 W/m 11,9 km/h (2 Bft)
29.01.2015 21:00 3,2 C 1,7 C 89 % 973,4 hPa 0,0 l/m 0,00 h 0,00 h 0 W/m 11,2 km/h (2 Bft)
29.01.2015 22:00 2,9 C 1,7 C 90 % 972,8 hPa 0,0 l/m 0,00 h 0,00 h 0 W/m 9,9 km/h (2 Bft)
29.01.2015 23:00 2,8 C 1,7 C 90 % 972,0 hPa 0,0 l/m 0,00 h 0,00 h 0 W/m 14,0 km/h (3 Bft)
30.01.2015 00:00 2,7 C 1,3 C 90 % 971,5 hPa 0,4 l/m 0,00 h 0,50 h 0 W/m 17,0 km/h (3 Bft)
30.01.2015 01:00 1,7 C -0,0 C 92 % 971,8 hPa 0,4 l/m 0,00 h 1,00 h 0 W/m 22,3 km/h (4 Bft)
30.01.2015 02:00 0,6 C -0,6 C 94 % 972,4 hPa 0,2 l/m 0,00 h 1,00 h 0 W/m 20,1 km/h (4 Bft)
30.01.2015 03:00 0,8 C -0,3 C 95 % 972,8 hPa 0,2 l/m 0,00 h 0,57 h 0 W/m 25,5 km/h (4 Bft)
30.01.2015 04:00 0,5 C -0,7 C 95 % 973,5 hPa 0,0 l/m 0,00 h 0,00 h 0 W/m 22,7 km/h (4 Bft)
30.01.2015 05:00 0,5 C -0,6 C 95 % 974,3 hPa 0,0 l/m 0,00 h 0,13 h 0 W/m 25,0 km/h (4 Bft)
30.01.2015 06:00 0,5 C -0,6 C 95 % 974,9 hPa 0,0 l/m 0,00 h 0,00 h 0 W/m 24,1 km/h (4 Bft)
30.01.2015 07:00 0,4 C -0,7 C 95 % 975,6 hPa 0,0 l/m 0,00 h 0,00 h 0 W/m 25,5 km/h (4 Bft)
30.01.2015 08:00 0,3 C -1,0 C 95 % 976,4 hPa 0,0 l/m 0,00 h 0,00 h 14 W/m 22,2 km/h (4 Bft)
30.01.2015 09:00 0,6 C -0,4 C 95 % 977,0 hPa 0,0 l/m 0,10 h 0,00 h 51 W/m 22,4 km/h (4 Bft)
30.01.2015 10:00 1,2 C 0,5 C 94 % 977,3 hPa 0,0 l/m 0,10 h 0,00 h 96 W/m 20,1 km/h (4 Bft)
30.01.2015 11:00 2,0 C 1,5 C 93 % 977,5 hPa 0,0 l/m 0,43 h 0,00 h 172 W/m 23,3 km/h (4 Bft)
30.01.2015 12:00 2,6 C 2,0 C 89 % 977,3 hPa 0,0 l/m 0,30 h 0,00 h 160 W/m 21,8 km/h (4 Bft)
30.01.2015 13:00 2,6 C 2,2 C 89 % 977,2 hPa 0,0 l/m 0,00 h 0,00 h 116 W/m 16,9 km/h (3 Bft)
30.01.2015 14:00 2,9 C 2,5 C 86 % 976,9 hPa 0,0 l/m 0,13 h 0,00 h 119 W/m 16,3 km/h (3 Bft)
30.01.2015 15:00 3,1 C 2,4 C 84 % 977,0 hPa 0,0 l/m 0,27 h 0,00 h 97 W/m 12,5 km/h (3 Bft)
30.01.2015 16:00 2,6 C 0,9 C 85 % 977,0 hPa 0,0 l/m 0,03 h 0,00 h 31 W/m 6,0 km/h (2 Bft)
30.01.2015 17:00 2,2 C 0,5 C 86 % 977,1 hPa 0,0 l/m 0,00 h 0,00 h 5 W/m 4,1 km/h (1 Bft)
30.01.2015 18:00 2,0 C 0,6 C 88 % 977,4 hPa 0,0 l/m 0,00 h 0,00 h 0 W/m 4,6 km/h (1 Bft)
30.01.2015 19:00 2,0 C 1,0 C 90 % 977,5 hPa 0,0 l/m 0,00 h 0,00 h 0 W/m 10,4 km/h (2 Bft)
30.01.2015 20:00 2,0 C 1,1 C 90 % 977,5 hPa 0,0 l/m 0,00 h 0,00 h 0 W/m 12,4 km/h (3 Bft)
30.01.2015 21:00 2,0 C 0,6 C 91 % 977,4 hPa 0,2 l/m 0,00 h 0,67 h 0 W/m 14,5 km/h (3 Bft)
30.01.2015 22:00 1,8 C 0,3 C 92 % 977,3 hPa 0,6 l/m 0,00 h 1,00 h 0 W/m 16,1 km/h (3 Bft)
30.01.2015 23:00 1,3 C -0,0 C 94 % 977,2 hPa 0,6 l/m 0,00 h 1,00 h 0 W/m 19,6 km/h (3 Bft)
31.01.2015 00:00 1,4 C 0,2 C 95 % 977,3 hPa 0,0 l/m 0,00 h 0,55 h 0 W/m 25,4 km/h (4 Bft)
31.01.2015 01:00 1,6 C 0,6 C 95 % 977,5 hPa 0,0 l/m 0,00 h 0,00 h 0 W/m 25,7 km/h (4 Bft)
31.01.2015 02:00 1,8 C 0,6 C 96 % 978,0 hPa 0,0 l/m 0,00 h 0,00 h 0 W/m 21,9 km/h (4 Bft)
31.01.2015 03:00 1,7 C 0,5 C 95 % 978,3 hPa 0,0 l/m 0,00 h 0,00 h 0 W/m 20,3 km/h (4 Bft)
31.01.2015 04:00 1,6 C 0,6 C 95 % 978,5 hPa 0,0 l/m 0,00 h 0,00 h 0 W/m 19,2 km/h (3 Bft)
31.01.2015 05:00 1,5 C 0,1 C 95 % 978,6 hPa 0,0 l/m 0,00 h 0,00 h 0 W/m 19,2 km/h (3 Bft)
31.01.2015 06:00 1,0 C -0,6 C 95 % 979,1 hPa 0,0 l/m 0,00 h 0,00 h 0 W/m 16,5 km/h (3 Bft)
31.01.2015 07:00 0,8 C -0,4 C 96 % 979,6 hPa 0,0 l/m 0,00 h 0,00 h 0 W/m 15,6 km/h (3 Bft)
31.01.2015 08:00 0,5 C -0,7 C 95 % 980,2 hPa 0,0 l/m 0,00 h 0,00 h 12 W/m 13,4 km/h (3 Bft)
31.01.2015 09:00 0,6 C -0,5 C 96 % 980,6 hPa 0,0 l/m 0,27 h 0,00 h 58 W/m 15,0 km/h (3 Bft)
31.01.2015 10:00 1,4 C 0,5 C 96 % 980,9 hPa 0,0 l/m 0,53 h 0,00 h 148 W/m 18,6 km/h (3 Bft)
31.01.2015 11:00 3,2 C 1,7 C 93 % 981,4 hPa 0,0 l/m 1,00 h 0,00 h 313 W/m 21,2 km/h (4 Bft)
31.01.2015 12:00 4,6 C 2,8 C 85 % 981,6 hPa 0,0 l/m 0,82 h 0,00 h 320 W/m 22,9 km/h (4 Bft)
31.01.2015 13:00 5,4 C 3,2 C 78 % 981,6 hPa 0,0 l/m 0,33 h 0,00 h 176 W/m 20,4 km/h (4 Bft)
31.01.2015 14:00 5,2 C 3,9 C 79 % 981,8 hPa 0,0 l/m 0,83 h 0,00 h 246 W/m 18,9 km/h (3 Bft)
31.01.2015 15:00 5,4 C 3,9 C 76 % 982,3 hPa 0,0 l/m 0,90 h 0,00 h 170 W/m 22,2 km/h (4 Bft)
31.01.2015 16:00 4,0 C 2,1 C 80 % 982,8 hPa 0,0 l/m 0,13 h 0,00 h 46 W/m 21,1 km/h (4 Bft)
31.01.2015 17:00 2,5 C 0,4 C 83 % 983,4 hPa 0,0 l/m 0,10 h 0,00 h 9 W/m 10,6 km/h (2 Bft)
31.01.2015 18:00 1,5 C -1,4 C 85 % 983,8 hPa 0,0 l/m 0,00 h 0,00 h 0 W/m 4,7 km/h (1 Bft)
31.01.2015 19:00 0,4 C -2,2 C 87 % 984,6 hPa 0,0 l/m 0,00 h 0,00 h 0 W/m 6,2 km/h (2 Bft)
31.01.2015 20:00 -0,1 C -2,3 C 90 % 985,0 hPa 0,0 l/m 0,00 h 0,00 h 0 W/m 5,0 km/h (1 Bft)
31.01.2015 21:00 -0,4 C -2,1 C 91 % 985,3 hPa 0,0 l/m 0,00 h 0,00 h 0 W/m 6,3 km/h (2 Bft)
31.01.2015 22:00 -0,5 C -2,6 C 93 % 985,5 hPa 0,0 l/m 0,00 h 0,00 h 0 W/m 5,0 km/h (1 Bft)
31.01.2015 23:00 -1,2 C -2,9 C 93 % 985,7 hPa 0,0 l/m 0,00 h 0,00 h 0 W/m 3,9 km/h (1 Bft)
01.02.2015 00:00 -1,1 C -2,2 C 94 % 985,9 hPa 0,0 l/m 0,00 h 0,00 h 0 W/m 5,8 km/h (2 Bft)
01.02.2015 01:00 -0,7 C -1,9 C 95 % 986,0 hPa 0,0 l/m 0,00 h 0,00 h 0 W/m 7,0 km/h (2 Bft)
01.02.2015 02:00 -0,6 C -2,1 C 95 % 986,1 hPa 0,0 l/m 0,00 h 0,00 h 0 W/m 7,1 km/h (2 Bft)
01.02.2015 03:00 -0,5 C -1,8 C 96 % 986,1 hPa 0,0 l/m 0,00 h 0,00 h 0 W/m 7,1 km/h (2 Bft)
01.02.2015 04:00 -0,7 C -1,6 C 96 % 986,3 hPa 0,0 l/m 0,00 h 0,00 h 0 W/m 8,8 km/h (2 Bft)
01.02.2015 05:00 -0,2 C -0,9 C 96 % 986,6 hPa 0,0 l/m 0,00 h 0,00 h 0 W/m 11,4 km/h (2 Bft)
01.02.2015 06:00 0,5 C -0,4 C 97 % 986,8 hPa 0,0 l/m 0,00 h 0,00 h 0 W/m 17,5 km/h (3 Bft)
01.02.2015 07:00 0,8 C 0,0 C 97 % 987,1 hPa 0,2 l/m 0,00 h 0,10 h 0 W/m 14,5 km/h (3 Bft)
01.02.2015 08:00 1,1 C 0,4 C 97 % 987,5 hPa 0,0 l/m 0,00 h 0,00 h 8 W/m 11,5 km/h (2 Bft)
01.02.2015 09:00 1,2 C 0,2 C 97 % 987,9 hPa 0,0 l/m 0,00 h 0,47 h 27 W/m 13,3 km/h (3 Bft)
01.02.2015 10:00 1,1 C 0,4 C 97 % 988,4 hPa 0,2 l/m 0,00 h 0,60 h 68 W/m 12,1 km/h (2 Bft)
01.02.2015 11:00 2,1 C 1,6 C 97 % 988,9 hPa 0,0 l/m 0,23 h 0,00 h 163 W/m 17,4 km/h (3 Bft)
01.02.2015 12:00 3,3 C 2,5 C 97 % 989,2 hPa 0,0 l/m 0,13 h 0,00 h 133 W/m 16,8 km/h (3 Bft)
01.02.2015 13:00 3,6 C 2,5 C 95 % 989,5 hPa 0,0 l/m 0,00 h 0,00 h 84 W/m 14,6 km/h (3 Bft)
01.02.2015 14:00 3,6 C 2,1 C 92 % 989,9 hPa 0,0 l/m 0,00 h 0,00 h 46 W/m 12,5 km/h (3 Bft)
01.02.2015 15:00 3,3 C 1,7 C 92 % 990,6 hPa 0,0 l/m 0,00 h 0,10 h 15 W/m 9,7 km/h (2 Bft)
01.02.2015 16:00 2,9 C 1,4 C 93 % 991,3 hPa 0,0 l/m 0,00 h 0,00 h 28 W/m 6,4 km/h (2 Bft)
01.02.2015 17:00 2,5 C 0,9 C 93 % 992,1 hPa 0,0 l/m 0,00 h 0,00 h 6 W/m 4,0 km/h (1 Bft)
01.02.2015 18:00 2,2 C 0,9 C 94 % 993,1 hPa 0,0 l/m 0,00 h 0,00 h 0 W/m 5,4 km/h (1 Bft)
01.02.2015 19:00 2,3 C 0,9 C 95 % 994,0 hPa 0,0 l/m 0,00 h 0,00 h 0 W/m 8,7 km/h (2 Bft)
01.02.2015 20:00 2,0 C -0,2 C 95 % 994,9 hPa 0,0 l/m 0,00 h 0,00 h 0 W/m 8,7 km/h (2 Bft)
01.02.2015 21:00 1,7 C 0,4 C 95 % 995,5 hPa 0,2 l/m 0,00 h 0,23 h 0 W/m 9,5 km/h (2 Bft)
01.02.2015 22:00 1,7 C 0,3 C 96 % 995,8 hPa 0,0 l/m 0,00 h 0,13 h 0 W/m 12,1 km/h (2 Bft)
01.02.2015 23:00 1,2 C -0,6 C 96 % 996,2 hPa 0,0 l/m 0,00 h 0,00 h 0 W/m 11,1 km/h (2 Bft)
Min-Datum _ 31.01.15 31.01.15 31.01.15 30.01.15 - - - - 31.01.15
_ Min-Zeit 23:38 22:50 15:08 00:52 - - - - 23:20
Minimum _ -1,4 C -3,3 C 75 % 971,2 hPa - - - - 0,0 km/h (0 Bft)
Max-Datum _ 28.01.15 28.01.15 26.01.15 26.01.15 27.01.15 27.01.15 26.01.15 29.01.15 28.01.15
_ Max-Zeit 12:30 12:28 09:10 00:20 16:22 08:32 01:18 13:46 13:52
Maximum _ 6,8 C 6,1 C 99 % 1026,4 hPa 2,0 l/m 0,03 h 0,03 h 473 W/m 73,2 km/h
SW (8 Bft)
Durchschnitt _ 2,8 C 1,4 C 93 % 997,4 hPa #19,0 l/m #11:47 h #27:00 h 78 W/m 17,8 km/h (3 Bft)
© 2015 W. Hausmann